Regional Weather Roundup
Issued by NWS

Home | Current Version | Previous Version | Text Only | Print | Product List | Glossary On
Versions: 1 2 3 4 5 6 7 8 9 10 11 12 13 14 15 16 17 18 19 20 21 22 23 24 25 26 27 28 29 30 31 32 33 34 35 36 37 38 39 40 41 42 43 44 45 46 47 48 49 50
000
ASUS43 KMPX 220801
RWRMN
WEATHER ROUNDUP FOR MINNESOTA
NATIONAL WEATHER SERVICE TWIN CITIES/CHANHASSEN MN
300 AM CDT TUE JUL 22 2014


NOTE: "FAIR" INDICATES FEW OR NO CLOUDS BELOW 12,000 FEET WITH NO
SIGNIFICANT WEATHER AND/OR OBSTRUCTIONS TO VISIBILITY. N/A MEANS
CURRENT SKY AND/OR WEATHER CONDITIONS ARE NOT AVAILABLE.

MNZ060>063-068>070-220900-
   Twin Cities Metro

CITY           SKY/WX    TMP DP  RH WIND       PRES   REMARKS
TWIN CITIES    CLOUDY    82  76  81 S8        29.80R
ST PAUL          N/A     78  75  90 SE6       29.80S
CRYSTAL        CLOUDY    83  75  77 SW7       29.78R HX  90
BLAINE         CLOUDY    82  79  89 S8        29.79S HX  93
LAKEVILLE      MOCLDY    79  73  83 S3        29.81S
EDEN PRAIRIE   MOCLDY    81  76  84 SW9       29.79S
SOUTH ST PAUL  CLOUDY    80  74  82 S8        29.80R
LAKE ELMO      FAIR      79  73  83 S9        29.82R
$$
MNZ001>005-007-008-013>017-022>024-027-028-220900-
   Northwest Minnesota

CITY           SKY/WX    TMP DP  RH WIND       PRES   REMARKS
BEMIDJI        LGT RAIN  65  64  98 N6        29.75S
HALLOCK        CLOUDY    63  61  94 NW8       29.86S
ROSEAU         LGT RAIN  63  57  82 NW9       29.84R
WARROAD        CLOUDY    63  59  88 NW13      29.81R
THIEF RVR FALL CLOUDY    64  63  94 NW15      29.84R
FOSSTON        LGT RAIN  61  61 100 NW17      29.84R
DETROIT LAKES  CLOUDY    66  63  88 NW20G28   29.84R
MOORHEAD       CLOUDY    68  68 100 NW8       29.88R
PARK RAPIDS    LGT RAIN  67  65  93 CALM      29.74R
$$
MNZ006-009>011-018-025>026-220900-
   North Central Minnesota

CITY           SKY/WX    TMP DP  RH WIND       PRES   REMARKS
BAUDETTE       LGT RAIN  66  64  93 W7        29.76R
FLAG ISLAND    LGT RAIN  66  63  88 NW18      29.77R
INTL FALLS     HVY RAIN  68  66  93 N5        29.70R
WASKISH        LGT RAIN  66  64  94 W9        29.76R
LONGVILLE      CLOUDY    66  64  94 CALM      29.74F
GRAND RAPIDS   CLOUDY    66  64  94 CALM      29.74R
ORR            CLOUDY    64  63  94 SE6       29.67F
COOK           CLOUDY    66  64  94 SE2       29.73F
$$
MNZ012-019>021-037-220900-
   Northeast Minnesota

CITY           SKY/WX    TMP DP  RH WIND       PRES   REMARKS
DULUTH         TSTM      67  64  90 SE8       29.74F FOG
ELY            RAIN      66  64  94 SE8       29.73F
HIBBING        CLOUDY    67  64  90 W6        29.74R
DULUTH HARBOR  TSTM      66  64  94 E10       29.74F
TWO HARBORS    LGT RAIN  64  61  88 S6        29.78F
SILVER BAY     LGT RAIN  66  66 100 W3        29.76F
GRAND MARAIS     N/A     60  59  96 CALM      29.72F
G MARAIS ARPRT CLOUDY    68  64  88 SW12G23   29.79R
$$
MNZ029>031-032-039>041-046>048-054>057-064-220900-
   West Central Minnesota

CITY           SKY/WX    TMP DP  RH WIND       PRES   REMARKS
FERGUS FALLS   PTCLDY    66  64  94 NW10      29.86R
WHEATON        CLEAR     64  63  94 NW10      29.90R
MORRIS         CLEAR     66  64  94 W8        29.85S
ALEXANDRIA     PTCLDY    67  32  27 W12       29.86R
ELBOW LAKE     FAIR      65  64  98 W10       29.86R
WADENA         MOCLDY    64  64 100 W14G20    29.79S
GLENWOOD       PTCLDY    66  64  94 W12       29.85R
APPLETON       CLEAR     66  63  88 W6        29.86R
BENSON         PTCLDY    64  63  94 NW3       29.85R
MADISON        CLEAR     70  66  88 NW6       29.85F
WILLMAR        FAIR      72  63  73 NW7       29.85S
$$
MNZ033>034-036-042>043-049>051-058-059-220900-
   Central Minnesota

CITY           SKY/WX    TMP DP  RH WIND       PRES   REMARKS
ST CLOUD       MOCLDY    72  67  84 SW7       29.80F
SAUK CENTRE    FAIR      66  64  94 W6        29.83F
PAYNESVILLE    HVY RAIN  62  61  97 SW6       29.83S
AITKIN         CLOUDY    70  64  83 SW7G16    29.71F
PINE RIVER     CLOUDY    66  64  94 CALM      29.79R
BRAINERD       CLOUDY    67  64  90 SW12      29.76R
STAPLES        MOCLDY    64  63  94 SW10G16   29.78R
LONG PRAIRIE   FAIR      64  63  94 SW7       29.83S
LITTLE FALLS   PTCLDY    68  63  83 W6        29.80R
LITCHFIELD     PTCLDY    72  70  94 CALM      29.83F
BUFFALO        CLOUDY    80  72  78 W8        29.81S
MAPLE LAKE     MOCLDY    74  68  81 W3        29.82S
$$
MNZ037-044-045-052-053-220900-
   East Central Minnesota

CITY           SKY/WX    TMP DP  RH WIND       PRES   REMARKS
PRINCETON      CLOUDY    72  66  83 CALM      29.79F
MORA           CLOUDY    64  64 100 S6        29.79F
CAMBRIDGE      CLOUDY    75  64  69 NW3       29.79R
RUSH CITY      CLOUDY    72  67  84 CALM      29.78F
MOOSE LAKE     CLOUDY    68  64  88 S8        29.70F
HINCKLEY       PTSUNNY   70  70 100 S7        29.77F
CLOQUET        CLOUDY    66  64  94 E6        29.73F
$$
MNZ071>073-080-081-089-090-097-098-220900-
   Southwest Minnesota

CITY           SKY/WX    TMP DP  RH WIND       PRES   REMARKS
MONTEVIDEO     CLEAR     66  63  88 N7        29.85S
GRANITE FALLS  CLEAR     69  65  84 NW3       29.86S
CANBY          CLEAR     69  64  83 NW6       29.87S
MARSHALL       CLEAR     72  64  78 NW8       29.86R
REDWOOD FALLS  PTCLDY    77  75  93 NW12      29.83R
OLIVIA         CLEAR     73  68  83 N6        29.83S
PIPESTONE      CLEAR     77  73  88 N3        29.89R
WINDOM         CLEAR     79  75  89 W3        29.87R FOG
WORTHINGTON    CLEAR     79  75  89 W3        29.88R
TRACY          PTCLDY    77  71  81 NW10G18   29.87R
SLAYTON        CLEAR     76  75  95 CALM      29.89R FOG
$$
MNZ065>067-074>077-082>085-091>093-220900-
   South Central Minnesota

CITY           SKY/WX    TMP DP  RH WIND       PRES   REMARKS
MANKATO        CLEAR     81  73  78 S10       29.82F
NEW ULM        CLEAR     79  79 100 SW5       29.82S
ST JAMES       CLEAR     81  75  83 SW9       29.84R
FAIRMONT       CLEAR     79  72  78 S7        29.84S
GLENCOE        CLOUDY    81  75  83 W6        29.81R
FARIBAULT      PTCLDY    82  73  74 S9        29.83S
OWATONNA       PTCLDY    79  73  83 S9        29.85R
WASECA         PTCLDY    77  70  78 S10       29.86S
ALBERT LEA     PTCLDY    81  75  83 S9        29.87R
$$
MNZ078>079-086>088-094>096-220900-
   Southeast Minnesota

CITY           SKY/WX    TMP DP  RH WIND       PRES   REMARKS
ROCHESTER      CLOUDY    77  72  84 S13       29.88F
RED WING       MOCLDY    79  73  83 S6        29.82F
STANTON        MOCLDY    80  74  82 S7        29.81S
DODGE CENTER   MOCLDY    79  73  83 S14G22    29.87S
WINONA         DRIZZLE   77  70  78 SE7       29.87F
AUSTIN         MOCLDY    79  73  83 S12       29.87S
PRESTON        CLOUDY    76  75  95 S14       29.91S
$$
ABBREVIATIONS USED IN REMARKS
   TC - TEMPERATURES IN CELSIUS
  WCI - WIND CHILL INDEX
   HX - HEAT INDEX
  VSB - VISIBILITY
$$



USA.gov is the U.S. government's official web portal to all federal, state and local government web resources and services.